When you browse on this site, cookies collect data to enhance your experience and personalize the content and advertising you see.
Visit our Privacy Policy to learn more. By continuing to use the site, you agree to this use of cookies and data.

Meteo pe oră la Adeje

Astăzi, 11 Iulie, Sâmbătă

Timp Temperatura Precipitaţii Vânt Presiune Umiditate
00:00 +25°C° 0 mm 5 m/s 725 mmHg 45%
01:00 +25°C° 0 mm 5 m/s 724 mmHg 46%
02:00 +23°C° 0 mm 5 m/s 724 mmHg 47%
03:00 +23°C° 0 mm 5 m/s 724 mmHg 48%
04:00 +23°C° 0 mm 5 m/s 724 mmHg 49%
05:00 +22°C° 0 mm 4 m/s 724 mmHg 56%
06:00 +25°C° 0 mm 4 m/s 725 mmHg 50%
07:00 +27°C° 0 mm 5 m/s 725 mmHg 45%
08:00 +29°C° 0 mm 5 m/s 725 mmHg 39%
09:00 +29°C° 0 mm 5 m/s 725 mmHg 40%
10:00 +30°C° 0 mm 5 m/s 726 mmHg 41%
11:00 +30°C° 0 mm 5 m/s 726 mmHg 41%
12:00 +30°C° 0 mm 5 m/s 726 mmHg 40%
13:00 +32°C° 0 mm 5 m/s 725 mmHg 39%
14:00 +32°C° 0 mm 5 m/s 725 mmHg 39%
15:00 +30°C° 0 mm 5 m/s 725 mmHg 40%
16:00 +30°C° 0 mm 5 m/s 725 mmHg 41%
17:00 +29°C° 0 mm 5 m/s 725 mmHg 42%
18:00 +28°C° 0 mm 5 m/s 725 mmHg 45%
19:00 +27°C° 0 mm 5 m/s 725 mmHg 48%
20:00 +26°C° 0 mm 5 m/s 725 mmHg 51%
21:00 +25°C° 0 mm 5 m/s 725 mmHg 48%
22:00 +25°C° 0 mm 5 m/s 725 mmHg 46%
23:00 +25°C° 0 mm 5 m/s 725 mmHg 44%

Mâine, 12 Iulie, Duminică

Timp Temperatura Precipitaţii Vânt Presiune Umiditate
00:00 +25°C° 0 mm 5 m/s 725 mmHg 46%
01:00 +23°C° 0 mm 5 m/s 725 mmHg 48%
02:00 +23°C° 0 mm 4 m/s 725 mmHg 50%
03:00 +23°C° 0 mm 5 m/s 725 mmHg 48%
04:00 +23°C° 0 mm 5 m/s 725 mmHg 46%
05:00 +23°C° 0 mm 5 m/s 725 mmHg 45%
06:00 +26°C° 0 mm 5 m/s 725 mmHg 40%
07:00 +28°C° 0 mm 5 m/s 725 mmHg 34%
08:00 +30°C° 0 mm 5 m/s 726 mmHg 29%
09:00 +30°C° 0 mm 5 m/s 726 mmHg 31%
10:00 +32°C° 0 mm 5 m/s 726 mmHg 32%
11:00 +32°C° 0 mm 6 m/s 727 mmHg 34%
12:00 +32°C° 0 mm 5 m/s 727 mmHg 36%
13:00 +32°C° 0 mm 5 m/s 726 mmHg 38%
14:00 +33°C° 0 mm 5 m/s 726 mmHg 40%
15:00 +32°C° 0 mm 5 m/s 726 mmHg 41%
16:00 +32°C° 0 mm 5 m/s 726 mmHg 42%
17:00 +32°C° 0 mm 5 m/s 726 mmHg 43%
18:00 +29°C° 0 mm 5 m/s 726 mmHg 43%
19:00 +28°C° 0 mm 5 m/s 726 mmHg 44%
20:00 +27°C° 0 mm 4 m/s 726 mmHg 45%
21:00 +27°C° 0 mm 4 m/s 727 mmHg 43%
22:00 +27°C° 0 mm 4 m/s 727 mmHg 41%
23:00 +26°C° 0 mm 4 m/s 727 mmHg 39%

Poimâine, 13 Iulie, Luni

Timp Temperatura Precipitaţii Vânt Presiune Umiditate
00:00 +26°C° 0 mm 4 m/s 727 mmHg 38%
01:00 +26°C° 0 mm 4 m/s 727 mmHg 37%
02:00 +25°C° 0 mm 4 m/s 726 mmHg 36%
03:00 +25°C° 0 mm 4 m/s 726 mmHg 35%
04:00 +25°C° 0 mm 4 m/s 726 mmHg 34%
05:00 +25°C° 0 mm 4 m/s 726 mmHg 34%
06:00 +27°C° 0 mm 4 m/s 727 mmHg 31%
07:00 +30°C° 0 mm 4 m/s 727 mmHg 28%
08:00 +33°C° 0 mm 4 m/s 727 mmHg 25%
09:00 +33°C° 0 mm 4 m/s 728 mmHg 28%
10:00 +33°C° 0 mm 5 m/s 728 mmHg 31%
11:00 +34°C° 0 mm 5 m/s 728 mmHg 33%
12:00 +34°C° 0 mm 5 m/s 728 mmHg 35%
13:00 +34°C° 0 mm 5 m/s 728 mmHg 37%
14:00 +34°C° 0 mm 5 m/s 728 mmHg 39%
15:00 +33°C° 0 mm 5 m/s 727 mmHg 40%
16:00 +33°C° 0 mm 5 m/s 727 mmHg 40%
17:00 +32°C° 0 mm 5 m/s 727 mmHg 41%
18:00 +30°C° 0 mm 5 m/s 727 mmHg 44%
19:00 +28°C° 0 mm 5 m/s 727 mmHg 47%
20:00 +27°C° 0 mm 5 m/s 727 mmHg 49%
21:00 +27°C° 0 mm 4 m/s 727 mmHg 47%
22:00 +26°C° 0 mm 4 m/s 727 mmHg 45%
23:00 +26°C° 0 mm 4 m/s 727 mmHg 43%

14 Iulie, Marţi

Timp Temperatura Precipitaţii Vânt Presiune Umiditate
00:00 +25°C° 0 mm 4 m/s 727 mmHg 45%
01:00 +25°C° 0 mm 4 m/s 727 mmHg 47%
02:00 +23°C° 0 mm 4 m/s 726 mmHg 50%
03:00 +24°C° 0 mm 3 m/s 726 mmHg 51%
04:00 +22°C° 0 mm 3 m/s 726 mmHg 52%
05:00 +22°C° 0 mm 3 m/s 726 mmHg 54%
06:00 +25°C° 0 mm 3 m/s 726 mmHg 50%
07:00 +27°C° 0 mm 3 m/s 727 mmHg 46%
08:00 +28°C° 0 mm 4 m/s 727 mmHg 42%
09:00 +29°C° 0 mm 4 m/s 727 mmHg 41%
10:00 +30°C° 0 mm 4 m/s 727 mmHg 40%
11:00 +32°C° 0 mm 4 m/s 727 mmHg 38%
12:00 +32°C° 0 mm 5 m/s 726 mmHg 38%
13:00 +32°C° 0 mm 5 m/s 726 mmHg 37%
14:00 +33°C° 0 mm 6 m/s 726 mmHg 37%
15:00 +32°C° 0 mm 6 m/s 725 mmHg 40%
16:00 +30°C° 0 mm 6 m/s 725 mmHg 43%
17:00 +29°C° 0 mm 6 m/s 724 mmHg 46%
18:00 +28°C° 0 mm 6 m/s 725 mmHg 47%
19:00 +27°C° 0 mm 5 m/s 725 mmHg 48%
20:00 +26°C° 0 mm 5 m/s 725 mmHg 49%
21:00 +26°C° 0 mm 5 m/s 725 mmHg 46%
22:00 +25°C° 0 mm 5 m/s 725 mmHg 43%
23:00 +24°C° 0 mm 6 m/s 725 mmHg 40%

15 Iulie, Miercuri

Timp Temperatura Precipitaţii Vânt Presiune Umiditate
00:00 +25°C° 0 mm 5 m/s 724 mmHg 42%
01:00 +23°C° 0 mm 5 m/s 724 mmHg 44%
02:00 +23°C° 0 mm 5 m/s 724 mmHg 45%
03:00 +23°C° 0 mm 5 m/s 723 mmHg 47%
04:00 +22°C° 0 mm 5 m/s 723 mmHg 49%
05:00 +22°C° 0 mm 5 m/s 723 mmHg 51%
06:00 +25°C° 0 mm 5 m/s 723 mmHg 48%
07:00 +26°C° 0 mm 4 m/s 724 mmHg 46%
08:00 +28°C° 0 mm 4 m/s 724 mmHg 43%
09:00 +28°C° 0 mm 5 m/s 724 mmHg 44%
10:00 +29°C° 0 mm 5 m/s 724 mmHg 44%
11:00 +30°C° 0 mm 5 m/s 725 mmHg 44%
12:00 +29°C° 0 mm 5 m/s 725 mmHg 47%
13:00 +29°C° 0 mm 5 m/s 724 mmHg 49%
14:00 +29°C° 0 mm 5 m/s 724 mmHg 51%
15:00 +29°C° 0 mm 5 m/s 724 mmHg 53%
16:00 +28°C° 0 mm 5 m/s 723 mmHg 55%
17:00 +28°C° 0 mm 5 m/s 723 mmHg 57%
18:00 +27°C° 0 mm 4 m/s 723 mmHg 60%
19:00 +26°C° 0 mm 4 m/s 724 mmHg 64%
20:00 +25°C° 0 mm 4 m/s 724 mmHg 67%
21:00 +23°C° 0 mm 4 m/s 724 mmHg 62%
22:00 +23°C° 0 mm 4 m/s 724 mmHg 57%
23:00 +23°C° 0 mm 4 m/s 724 mmHg 52%

16 Iulie, Joi

Timp Temperatura Precipitaţii Vânt Presiune Umiditate
00:00 +23°C° 0 mm 4 m/s 724 mmHg 50%
01:00 +23°C° 0 mm 4 m/s 724 mmHg 47%
02:00 +23°C° 0 mm 4 m/s 723 mmHg 44%
03:00 +23°C° 0 mm 4 m/s 723 mmHg 45%
04:00 +23°C° 0 mm 4 m/s 724 mmHg 46%
05:00 +25°C° 0 mm 3 m/s 724 mmHg 47%
06:00 +26°C° 0 mm 3 m/s 724 mmHg 47%
07:00 +27°C° 0 mm 3 m/s 725 mmHg 46%
08:00 +29°C° 0 mm 3 m/s 725 mmHg 46%
09:00 +29°C° 0 mm 3 m/s 725 mmHg 46%
10:00 +30°C° 0 mm 3 m/s 725 mmHg 47%
11:00 +31°C° 0 mm 3 m/s 726 mmHg 47%
12:00 +33°C° 0 mm 3 m/s 726 mmHg 44%
13:00 +34°C° 0 mm 3 m/s 725 mmHg 42%
14:00 +35°C° 0 mm 4 m/s 725 mmHg 40%
15:00 +34°C° 0 mm 4 m/s 725 mmHg 44%
16:00 +33°C° 0 mm 3 m/s 725 mmHg 47%
17:00 +31°C° 0 mm 3 m/s 725 mmHg 51%
18:00 +30°C° 0 mm 3 m/s 725 mmHg 54%
19:00 +28°C° 0 mm 3 m/s 725 mmHg 58%
20:00 +27°C° 0 mm 3 m/s 725 mmHg 61%
21:00 +27°C° 0 mm 3 m/s 726 mmHg 58%
22:00 +27°C° 0 mm 3 m/s 726 mmHg 54%
23:00 +27°C° 0 mm 3 m/s 726 mmHg 51%
Arată mai mult